[[{"header":{"parameterUnit":"m.s-1","parameterCategory":2,"la1":30.2991,"la2":30.254,"lo1":-89.0895,"lo2":-89.0444,"dy":0.0017,"dx":0.0017,"nx":28,"ny":28,"refTime":"2024-04-28T03:00:00:Z","depth":"0","parameterNumber":2,"parameterNumberName":"U-component_of_CURRENTS"},"data":[0,0,0,0,0,0,0,0,0,0,0,0,0,0,0,0,0,0,0,0,0,0,0,0,0,0,0,0,0,0,0,0,0,0,0,0,0,0,0,0,0,0,0,0,0,0,0,0,0,0,0,0,0,0,0,0,0,0,-0.2827,-0.2826,0,-0.2763,-0.2762,-0.2761,-0.2702,-0.2702,-0.2702,-0.2701,-0.2542,-0.2538,-0.2534,0,0,0,0,0,0,0,0,0,0,0,0,0,-0.2812,-0.2813,-0.2827,-0.2826,-0.2826,-0.2764,-0.2762,-0.2761,-0.2702,-0.2702,-0.2701,-0.2701,-0.2544,-0.2539,-0.2534,0,0,0,0,0,0,0,0,0,0,0,0,0,-0.2786,-0.2813,-0.2827,-0.2794,-0.279,-0.2764,-0.2762,-0.276,-0.2702,-0.2702,-0.2701,-0.2701,-0.2545,-0.2539,-0.2533,-0.2502,0,0,-0.2515,-0.2512,0,0,0,0,0,0,0,0,-0.2787,-0.2785,-0.2799,-0.2796,-0.2792,-0.2745,-0.2699,-0.2671,-0.2702,-0.2729,-0.2701,-0.2701,-0.2605,-0.2594,-0.2576,-0.2495,-0.2488,-0.2514,-0.2511,-0.2508,-0.2506,0,0,0,0,0,0,0,-0.2789,-0.2787,-0.2796,-0.2799,-0.2795,-0.2753,-0.2749,-0.2693,-0.2664,-0.2727,-0.2724,-0.2726,-0.2602,-0.2582,-0.2572,-0.2485,-0.2515,-0.2509,-0.2505,-0.2503,-0.2395,-0.2396,0,0,0,0,0,0,-0.2814,-0.279,-0.2798,-0.2794,-0.2796,-0.2755,-0.275,-0.2756,-0.2666,-0.2655,-0.2727,-0.2724,-0.2593,-0.2579,-0.2566,-0.2544,-0.2508,-0.2502,-0.2499,-0.2395,-0.2395,-0.2396,0,0,0,0,0,0,-0.2814,-0.2815,-0.28,-0.2795,-0.2791,-0.2757,-0.2763,-0.2755,-0.2737,-0.2668,-0.2653,-0.2718,-0.2592,-0.2575,-0.253,-0.2536,-0.25,-0.2494,-0.2394,-0.2395,-0.2396,-0.2486,0,0,0,0,0,0,-0.2814,-0.2816,-0.2819,-0.2797,-0.2792,-0.2799,-0.2764,-0.2754,-0.2742,-0.2737,-0.2656,-0.2641,-0.259,-0.2539,-0.2524,-0.2527,-0.2489,-0.2393,-0.2394,-0.2395,-0.2482,-0.249,-0.2497,0,0,0,0,0,-0.2813,-0.2824,-0.2819,-0.282,-0.2801,-0.28,-0.2794,-0.2763,-0.2742,-0.2743,-0.269,-0.2643,-0.2538,-0.2535,-0.2516,-0.2518,-0.2392,-0.2394,-0.2395,-0.2478,-0.2488,-0.2496,0,0,0,0,0,0,-0.2812,-0.2819,-0.2813,-0.2823,-0.2821,-0.2793,-0.2786,-0.2769,-0.2728,-0.2715,-0.2647,-0.2628,-0.2595,-0.2546,-0.2545,-0.2494,-0.2459,-0.2457,-0.2529,-0.2537,-0.2544,-0.2545,-0.2484,0,0,0,0,0,-0.2819,-0.2827,-0.283,-0.2834,-0.2838,-0.2813,-0.2804,-0.279,-0.2758,-0.2739,-0.2687,-0.263,-0.2587,-0.2555,-0.251,-0.2473,-0.244,-0.2465,-0.2473,-0.2479,-0.2469,-0.2437,-0.2441,-0.2402,-0.2402,-0.2402,0,0,-0.2815,-0.2822,-0.2823,-0.2835,-0.2823,-0.283,-0.2805,-0.2802,-0.2798,-0.2726,-0.2693,-0.2653,-0.2586,-0.2555,-0.2535,-0.2513,-0.248,-0.2482,-0.2488,-0.2473,-0.2439,-0.2443,-0.2446,-0.2403,-0.2403,-0.2403,0,0,-0.2818,-0.2826,-0.2835,-0.2843,-0.2848,-0.2839,-0.2846,-0.2829,-0.2813,-0.2788,-0.2741,-0.2706,-0.2634,-0.2593,-0.2561,-0.2578,-0.2526,-0.2569,-0.2595,-0.2566,-0.2568,-0.257,-0.2564,-0.2564,-0.2566,-0.2566,-0.2566,0,-0.2813,-0.283,-0.2836,-0.2853,-0.2859,-0.285,-0.2862,-0.2848,-0.2817,-0.2805,-0.279,-0.2701,-0.265,-0.2607,-0.2618,-0.2593,-0.2577,-0.2568,-0.2576,-0.2577,-0.2577,-0.2569,-0.2569,-0.2571,-0.257,-0.257,-0.2569,0,-0.2821,-0.2841,-0.2849,-0.2869,-0.2878,-0.2888,-0.289,-0.2886,-0.2869,-0.2851,-0.2818,-0.2757,-0.2702,-0.2691,-0.2655,-0.2634,-0.2625,-0.2597,-0.2555,-0.2586,-0.2577,-0.2575,-0.2577,-0.2576,-0.2574,-0.2573,0,0,-0.2794,-0.2845,-0.2847,-0.2865,-0.289,-0.2897,-0.2906,-0.2909,-0.2906,-0.2878,-0.2863,-0.2804,-0.2775,-0.2737,-0.2693,-0.2666,-0.267,-0.2637,-0.2634,-0.2635,-0.2626,-0.264,-0.2638,-0.2647,-0.2646,-0.2646,-0.2629,0,-0.2795,-0.2833,-0.2858,-0.2887,-0.2907,-0.2922,-0.2932,-0.2933,-0.2923,-0.291,-0.2861,-0.2827,-0.2792,-0.2767,-0.2738,-0.2683,-0.2663,-0.2677,-0.259,-0.2587,-0.2598,-0.2635,-0.2645,-0.2632,-0.2627,-0.2626,-0.2626,0,-0.2782,-0.282,-0.2852,-0.2907,-0.2916,-0.2929,-0.2946,-0.2954,-0.2947,-0.294,-0.2909,-0.2872,-0.2828,-0.2793,-0.2718,-0.2732,-0.2684,-0.2645,-0.2643,-0.2615,-0.2596,-0.2592,-0.2627,-0.2613,-0.2622,-0.2622,-0.2622,0,-0.2743,-0.2807,-0.2832,-0.285,-0.2911,-0.2922,-0.2942,-0.2953,-0.2961,-0.295,-0.2952,-0.29,-0.2862,-0.2805,-0.2727,-0.2724,-0.265,-0.2632,-0.2601,-0.2602,-0.257,-0.2569,-0.2578,-0.2576,-0.2576,-0.2576,-0.2576,0,-0.2728,-0.2749,-0.2817,-0.2834,-0.2858,-0.2907,-0.292,-0.2936,-0.2961,-0.2968,-0.2955,-0.2941,-0.286,-0.281,-0.2746,-0.2674,-0.2663,-0.2611,-0.2596,-0.2606,-0.2608,-0.2559,-0.2555,-0.2575,-0.2575,-0.2576,-0.2576,0,-0.2671,-0.272,-0.275,-0.2821,-0.2836,-0.2846,-0.2903,-0.292,-0.2956,-0.2965,-0.2965,-0.2961,-0.291,-0.2838,-0.274,-0.2694,-0.2604,-0.2596,-0.2628,-0.2617,-0.2596,-0.2597,-0.2524,-0.2476,-0.2579,-0.2579,-0.2579,0,-0.2643,-0.2649,-0.2712,-0.2727,-0.2755,-0.2788,-0.2813,-0.2885,-0.291,-0.2971,-0.297,-0.2952,-0.292,-0.2818,-0.274,-0.2655,-0.2597,-0.261,-0.2599,-0.2604,-0.2593,-0.2547,-0.2507,-0.2602,-0.2602,-0.2603,-0.2603,0,-0.2571,-0.2582,-0.2604,-0.2646,-0.2676,-0.2715,-0.2762,-0.279,-0.2877,-0.2902,-0.2935,-0.2929,-0.2886,-0.2823,-0.2734,-0.2667,-0.2597,-0.2614,-0.2596,-0.2599,-0.2568,-0.2512,-0.262,-0.2606,-0.2605,-0.2605,-0.2605,-0.2605,-0.2481,-0.2476,-0.2501,-0.2525,-0.2569,-0.2613,-0.2577,-0.2665,-0.2696,-0.2692,-0.2831,-0.2792,-0.2866,-0.276,-0.2704,-0.265,-0.2597,-0.2605,-0.2604,-0.2555,-0.2513,-0.2646,-0.2627,-0.2627,-0.2627,-0.2626,-0.2626,0,-0.2369,-0.2367,-0.2385,-0.2398,-0.2387,-0.2465,-0.2504,-0.2429,-0.2401,-0.2507,-0.2523,-0.2665,-0.2699,-0.2729,-0.2763,-0.2677,-0.2576,-0.2605,-0.2543,-0.2499,-0.2604,-0.2612,-0.2616,-0.2616,-0.2616,-0.2616,-0.2616,-0.2616,-0.2302,-0.2263,-0.2276,-0.2197,-0.22,-0.2109,-0.2087,-0.2013,-0.2017,-0.2009,-0.2097,-0.2208,-0.2405,-0.279,-0.2798,-0.2708,-0.2588,-0.2536,-0.2473,-0.2577,-0.2577,-0.2577,-0.2583,-0.2581,-0.2581,-0.2333,-0.2332,-0.2331]},{"header":{"parameterUnit":"m.s-1","parameterCategory":2,"la1":30.2991,"la2":30.254,"lo1":-89.0895,"lo2":-89.0444,"dy":0.0017,"dx":0.0017,"nx":28,"ny":28,"refTime":"2024-04-28T03:00:00:Z","depth":"0","parameterNumber":3,"parameterNumberName":"V-component_of_CURRENTS"},"data":[0,0,0,0,0,0,0,0,0,0,0,0,0,0,0,0,0,0,0,0,0,0,0,0,0,0,0,0,0,0,0,0,0,0,0,0,0,0,0,0,0,0,0,0,0,0,0,0,0,0,0,0,0,0,0,0,0,0,-0.0182,-0.0181,0,-0.0089,-0.0088,-0.0087,-0.0056,-0.0056,-0.0056,-0.0057,0.003,0.0033,0.0035,0,0,0,0,0,0,0,0,0,0,0,0,0,-0.0283,-0.0281,-0.0182,-0.0181,-0.018,-0.0089,-0.0088,-0.0087,-0.0056,-0.0056,-0.0056,-0.0057,0.0029,0.0033,0.0036,0,0,0,0,0,0,0,0,0,0,0,0,0,-0.022,-0.0281,-0.0183,-0.0153,-0.0149,-0.0089,-0.0088,-0.0086,-0.0055,-0.0056,-0.0056,-0.0057,0.0028,0.0032,0.0036,0.007,0,0,0.0048,0.005,0,0,0,0,0,0,0,0,-0.0224,-0.0216,-0.0159,-0.0155,-0.0151,-0.0084,-0.0091,-0.0034,-0.0055,-0.0092,-0.0057,-0.0057,-0.0008,-0.0001,0.0017,0.0074,0.0078,0.0048,0.0051,0.0053,0.0054,0,0,0,0,0,0,0,-0.0228,-0.022,-0.0146,-0.0157,-0.0152,-0.0127,-0.0119,-0.008,-0.0049,-0.0089,-0.0086,-0.0074,-0.0006,0.0013,0.0019,0.0079,0.0048,0.0052,0.0054,0.0056,0.0183,0.0184,0,0,0,0,0,0,-0.024,-0.0224,-0.0149,-0.0143,-0.0188,-0.0125,-0.0116,-0.0105,-0.0049,-0.004,-0.0074,-0.0073,0.0007,0.0015,0.0022,0.0071,0.0052,0.0056,0.0058,0.0182,0.0184,0.0185,0,0,0,0,0,0,-0.0243,-0.0234,-0.0153,-0.0181,-0.0169,-0.0123,-0.0111,-0.0103,-0.0087,-0.0038,-0.003,-0.0066,0.0007,0.0017,0.0063,0.0074,0.0058,0.0062,0.0181,0.0183,0.0184,0.0165,0,0,0,0,0,0,-0.0246,-0.0236,-0.0237,-0.0182,-0.0168,-0.0123,-0.011,-0.0101,-0.0078,-0.0076,-0.0028,-0.002,0.0007,0.0057,0.0067,0.0079,0.0065,0.018,0.0182,0.0184,0.0164,0.0166,0.0167,0,0,0,0,0,-0.025,-0.0251,-0.0237,-0.0228,-0.0169,-0.0123,-0.0113,-0.0082,-0.0078,-0.007,-0.003,-0.0022,0.0076,0.0061,0.0073,0.0086,0.0179,0.0181,0.0184,0.0164,0.0166,0.0167,0,0,0,0,0,0,-0.03,-0.0246,-0.023,-0.0216,-0.0175,-0.0118,-0.011,-0.0084,-0.0046,-0.0048,-0.0005,0.0007,0.005,0.0075,0.0057,0.013,0.0128,0.0133,0.0109,0.0111,0.0112,0.0102,0.0068,0,0,0,0,0,-0.0309,-0.0296,-0.0238,-0.0229,-0.0211,-0.016,-0.014,-0.0115,-0.0072,-0.0056,-0.0017,0.0026,0.0071,0.0094,0.0134,0.0176,0.0207,0.0192,0.0193,0.0194,0.0194,0.0254,0.026,0.0192,0.0192,0.0192,0,0,-0.0328,-0.0296,-0.029,-0.0239,-0.0207,-0.018,-0.015,-0.0121,-0.0095,-0.0052,-0.0011,0.003,0.0083,0.013,0.0152,0.0151,0.0232,0.0197,0.0197,0.0197,0.0257,0.0263,0.0269,0.0194,0.0194,0.0193,0,0,-0.036,-0.0329,-0.0329,-0.0292,-0.0243,-0.0203,-0.0196,-0.0135,-0.0107,-0.0057,-0.0018,0.0034,0.0096,0.0144,0.0175,0.0209,0.0235,0.0217,0.0217,0.0274,0.028,0.0285,0.0336,0.0346,0.0218,0.0218,0.0218,0,-0.0387,-0.0373,-0.0322,-0.0306,-0.0281,-0.0216,-0.0204,-0.0158,-0.0089,-0.0057,-0.0052,0.0066,0.0106,0.018,0.0191,0.0212,0.0243,0.0203,0.0275,0.0281,0.0286,0.0337,0.0348,0.0218,0.0218,0.0218,0.0218,0,-0.0412,-0.0398,-0.0394,-0.035,-0.0312,-0.0293,-0.0218,-0.0177,-0.0134,-0.0081,-0.0003,0.0066,0.0135,0.0159,0.0185,0.0252,0.0261,0.0266,0.0265,0.0292,0.0344,0.0356,0.0217,0.0217,0.0217,0.0217,0,0,-0.0483,-0.0425,-0.0425,-0.0412,-0.0334,-0.0308,-0.0252,-0.0179,-0.0139,-0.0064,-0.0005,0.0084,0.0126,0.0164,0.0213,0.0266,0.0336,0.0278,0.0281,0.0318,0.046,0.0546,0.0567,0.035,0.0352,0.0353,0.048,0,-0.0522,-0.0523,-0.0464,-0.0447,-0.0441,-0.0348,-0.0299,-0.022,-0.0144,-0.0067,0.0028,0.0094,0.0128,0.016,0.0225,0.0314,0.0367,0.0301,0.0437,0.0441,0.0507,0.0584,0.0684,0.0812,0.0492,0.0494,0.0495,0,-0.0569,-0.0561,-0.0566,-0.05,-0.0484,-0.0452,-0.0357,-0.0302,-0.0169,-0.0107,-0.0009,0.0067,0.0178,0.0187,0.0357,0.0312,0.0379,0.0442,0.0448,0.0544,0.0551,0.0736,0.0847,0.1022,0.0514,0.0512,0.0511,0,-0.0667,-0.0627,-0.0638,-0.0617,-0.0532,-0.0503,-0.0449,-0.0327,-0.0269,-0.0136,-0.0077,0.0065,0.0147,0.0253,0.0403,0.0374,0.0586,0.0562,0.0704,0.071,0.0831,0.0846,0.1122,0.0665,0.0665,0.0665,0.0664,0,-0.0737,-0.074,-0.0688,-0.0693,-0.0686,-0.0589,-0.0547,-0.0464,-0.0334,-0.0252,-0.0115,-0.0009,0.0166,0.0317,0.0417,0.0629,0.0605,0.073,0.0763,0.0829,0.0841,0.1026,0.1077,0.0669,0.0668,0.0667,0.0667,0,-0.084,-0.0808,-0.0815,-0.0754,-0.0738,-0.0735,-0.063,-0.0585,-0.0451,-0.0335,-0.0295,-0.0052,0.0172,0.0353,0.0563,0.0669,0.0958,0.0897,0.0967,0.1007,0.1294,0.1338,0.1603,0.1689,0.1078,0.1081,0.1084,0,-0.0892,-0.0914,-0.0892,-0.0904,-0.0878,-0.0852,-0.0823,-0.0679,-0.0607,-0.0348,-0.0289,-0.0031,0.02,0.0571,0.0805,0.1039,0.1114,0.1233,0.12,0.1363,0.1436,0.1431,0.1482,0.135,0.1354,0.1358,0.1361,0,-0.0984,-0.0978,-0.0987,-0.1035,-0.1025,-0.0993,-0.0925,-0.0873,-0.0667,-0.0515,-0.0241,-0.0028,0.04,0.0803,0.1121,0.1227,0.1394,0.1316,0.1483,0.1688,0.1707,0.1787,0.1195,0.1395,0.1391,0.1389,0.1387,0.1386,-0.1047,-0.1089,-0.1115,-0.1148,-0.1143,-0.1101,-0.1042,-0.0908,-0.0749,-0.0429,-0.0236,0.0186,0.0776,0.1287,0.1421,0.1789,0.1671,0.1881,0.1924,0.1905,0.2002,0.1486,0.172,0.1718,0.1717,0.1716,0.1715,0,-0.1125,-0.1164,-0.122,-0.1238,-0.1239,-0.12,-0.1077,-0.0935,-0.0701,-0.0375,-0.0059,0.0679,0.1247,0.1706,0.225,0.2415,0.2376,0.2469,0.25,0.252,0.209,0.2118,0.2454,0.2454,0.2454,0.2454,0.2453,0.2453,-0.1164,-0.1248,-0.1278,-0.1313,-0.1302,-0.1215,-0.1114,-0.0832,-0.0545,0.0024,0.0492,0.082,0.1508,0.2484,0.2969,0.2954,0.307,0.3049,0.3077,0.2804,0.2751,0.2701,0.2744,0.3205,0.3206,0.35,0.3504,0.3506]}],[{"header":{"parameterUnit":"m.s-1","parameterCategory":2,"la1":30.2991,"la2":30.254,"lo1":-89.0895,"lo2":-89.0444,"dy":0.0017,"dx":0.0017,"nx":28,"ny":28,"refTime":"2024-04-28T03:00:00:Z","depth":"2","parameterNumber":2,"parameterNumberName":"U-component_of_CURRENTS"},"data":[0,0,0,0,0,0,0,0,0,0,0,0,0,0,0,0,0,0,0,0,0,0,0,0,0,0,0,0,0,0,0,0,0,0,0,0,0,0,0,0,0,0,0,0,0,0,0,0,0,0,0,0,0,0,0,0,0,0,-0.2759,-0.2759,0,-0.2698,-0.2697,-0.2695,-0.2639,-0.2639,-0.2639,-0.2638,-0.2483,-0.2479,-0.2475,0,0,0,0,0,0,0,0,0,0,0,0,0,-0.2743,-0.2744,-0.2759,-0.2759,-0.2759,-0.2698,-0.2696,-0.2695,-0.2639,-0.2639,-0.2639,-0.2638,-0.2484,-0.2479,-0.2475,0,0,0,0,0,0,0,0,0,0,0,0,0,-0.2718,-0.2744,-0.276,-0.2728,-0.2725,-0.2698,-0.2696,-0.2695,-0.2639,-0.2639,-0.2639,-0.2638,-0.2486,-0.248,-0.2474,-0.2441,0,0,-0.2456,-0.2453,0,0,0,0,0,0,0,0,-0.2719,-0.2717,-0.2733,-0.273,-0.2727,-0.2681,-0.2634,-0.2607,-0.2639,-0.2665,-0.2638,-0.2638,-0.2544,-0.2533,-0.2515,-0.2434,-0.2427,-0.2455,-0.2451,-0.2449,-0.2447,0,0,0,0,0,0,0,-0.2721,-0.2719,-0.2729,-0.2733,-0.2729,-0.2688,-0.2684,-0.2628,-0.2601,-0.2663,-0.266,-0.2663,-0.2541,-0.2521,-0.2511,-0.2425,-0.2455,-0.245,-0.2446,-0.2444,-0.2337,-0.2338,0,0,0,0,0,0,-0.2745,-0.2722,-0.2731,-0.2728,-0.2729,-0.2689,-0.2685,-0.2691,-0.2603,-0.2592,-0.2663,-0.2661,-0.2532,-0.2518,-0.2505,-0.2484,-0.2449,-0.2443,-0.244,-0.2336,-0.2337,-0.2338,0,0,0,0,0,0,-0.2745,-0.2747,-0.2734,-0.2727,-0.2724,-0.2691,-0.2698,-0.269,-0.2673,-0.2605,-0.2591,-0.2656,-0.2531,-0.2514,-0.247,-0.2477,-0.244,-0.2435,-0.2335,-0.2337,-0.2338,-0.2427,0,0,0,0,0,0,-0.2745,-0.2747,-0.2751,-0.273,-0.2725,-0.2732,-0.2698,-0.2689,-0.2678,-0.2674,-0.2594,-0.2579,-0.253,-0.248,-0.2464,-0.2468,-0.243,-0.2334,-0.2336,-0.2337,-0.2423,-0.2431,-0.2438,0,0,0,0,0,-0.2745,-0.2755,-0.2752,-0.2753,-0.2735,-0.2734,-0.2727,-0.2698,-0.2678,-0.2679,-0.2628,-0.2582,-0.2478,-0.2475,-0.2457,-0.2459,-0.2334,-0.2335,-0.2337,-0.242,-0.243,-0.2438,0,0,0,0,0,0,-0.2743,-0.2751,-0.2746,-0.2756,-0.2754,-0.2727,-0.2721,-0.2705,-0.2664,-0.2653,-0.2585,-0.2567,-0.2535,-0.2486,-0.2485,-0.2435,-0.24,-0.2398,-0.247,-0.2478,-0.2485,-0.2486,-0.2425,0,0,0,0,0,-0.275,-0.2759,-0.2762,-0.2767,-0.2771,-0.2747,-0.2739,-0.2726,-0.2694,-0.2676,-0.2625,-0.2569,-0.2527,-0.2496,-0.2451,-0.2414,-0.2382,-0.2407,-0.2414,-0.2421,-0.241,-0.2379,-0.2383,-0.2344,-0.2344,-0.2344,0,0,-0.2745,-0.2754,-0.2755,-0.2768,-0.2757,-0.2764,-0.274,-0.2738,-0.2734,-0.2663,-0.2631,-0.2592,-0.2526,-0.2495,-0.2476,-0.2453,-0.2422,-0.2423,-0.2429,-0.2414,-0.2381,-0.2385,-0.2388,-0.2345,-0.2345,-0.2344,0,0,-0.2748,-0.2757,-0.2767,-0.2776,-0.2782,-0.2773,-0.2781,-0.2764,-0.2749,-0.2725,-0.2678,-0.2645,-0.2574,-0.2533,-0.2501,-0.2519,-0.2468,-0.251,-0.2536,-0.2507,-0.251,-0.2512,-0.2506,-0.2506,-0.2507,-0.2507,-0.2507,0,-0.2742,-0.2761,-0.2768,-0.2786,-0.2792,-0.2784,-0.2796,-0.2783,-0.2753,-0.2742,-0.2727,-0.264,-0.259,-0.2547,-0.2559,-0.2534,-0.2518,-0.2509,-0.2517,-0.2518,-0.2518,-0.2511,-0.251,-0.2512,-0.2511,-0.2511,-0.251,0,-0.2751,-0.2772,-0.278,-0.2801,-0.2811,-0.2821,-0.2823,-0.2821,-0.2804,-0.2788,-0.2756,-0.2696,-0.2641,-0.2631,-0.2595,-0.2575,-0.2566,-0.2538,-0.2496,-0.2528,-0.2518,-0.2516,-0.2518,-0.2517,-0.2515,-0.2514,0,0,-0.2722,-0.2776,-0.2779,-0.2798,-0.2823,-0.283,-0.2839,-0.2843,-0.284,-0.2813,-0.28,-0.2741,-0.2714,-0.2677,-0.2634,-0.2607,-0.2611,-0.2579,-0.2575,-0.2577,-0.2568,-0.258,-0.2579,-0.2588,-0.2587,-0.2587,-0.2572,0,-0.2724,-0.2763,-0.2789,-0.2819,-0.284,-0.2854,-0.2864,-0.2867,-0.2857,-0.2845,-0.2797,-0.2765,-0.273,-0.2706,-0.2678,-0.2624,-0.2604,-0.2618,-0.2532,-0.2529,-0.2539,-0.2575,-0.2345,-0.2313,-0.2569,-0.2569,-0.2568,0,-0.2711,-0.2751,-0.2783,-0.2839,-0.2848,-0.2861,-0.288,-0.2888,-0.2881,-0.2875,-0.2845,-0.281,-0.2766,-0.2732,-0.2659,-0.2673,-0.2626,-0.2587,-0.2585,-0.2556,-0.2536,-0.2315,-0.2298,-0.2564,-0.2564,-0.2564,-0.2565,0,-0.2673,-0.2738,-0.2764,-0.2783,-0.2844,-0.2855,-0.2876,-0.2887,-0.2896,-0.2886,-0.2889,-0.2838,-0.2801,-0.2745,-0.2668,-0.2665,-0.2592,-0.2574,-0.2543,-0.2544,-0.2307,-0.2288,-0.2519,-0.2519,-0.2519,-0.2519,-0.2519,0,-0.2659,-0.2681,-0.275,-0.2767,-0.2792,-0.2842,-0.2855,-0.2872,-0.2898,-0.2905,-0.2892,-0.2879,-0.28,-0.275,-0.2687,-0.2616,-0.2604,-0.2552,-0.2537,-0.2338,-0.2323,-0.2496,-0.2494,-0.2518,-0.2518,-0.2518,-0.2519,0,-0.2602,-0.2653,-0.2684,-0.2756,-0.2771,-0.2782,-0.284,-0.2856,-0.2893,-0.2902,-0.2903,-0.2899,-0.2849,-0.2778,-0.2681,-0.2635,-0.2567,-0.2537,-0.2329,-0.2292,-0.2539,-0.2542,-0.2519,-0.252,-0.252,-0.252,-0.252,0,-0.2575,-0.2583,-0.2647,-0.2663,-0.2692,-0.2726,-0.2751,-0.2823,-0.2847,-0.2908,-0.2907,-0.289,-0.2846,-0.2745,-0.2608,-0.2506,-0.2565,-0.23,-0.2256,-0.255,-0.2538,-0.254,-0.2542,-0.1977,-0.1973,-0.1969,-0.1967,0,-0.2505,-0.2518,-0.254,-0.2584,-0.2614,-0.2653,-0.27,-0.2728,-0.2815,-0.2825,-0.2857,-0.284,-0.2746,-0.2531,-0.2418,-0.233,-0.2306,-0.2233,-0.254,-0.2046,-0.2046,-0.2033,-0.205,-0.1935,-0.1938,-0.1941,-0.1942,-0.1943,-0.2417,-0.2413,-0.244,-0.2465,-0.2509,-0.2552,-0.2517,-0.2541,-0.255,-0.2452,-0.2657,-0.2488,-0.2483,-0.2147,-0.2081,-0.1997,-0.2143,-0.2051,-0.2057,-0.2068,-0.2041,-0.2045,-0.1929,-0.1932,-0.1935,-0.1937,-0.1939,0,-0.2273,-0.2306,-0.2325,-0.2339,-0.2289,-0.2406,-0.2444,-0.2287,-0.216,-0.2138,-0.207,-0.1863,-0.1785,-0.1785,-0.1602,-0.1645,-0.1565,-0.1613,-0.1487,-0.1519,-0.1548,-0.1491,-0.1234,-0.1232,-0.1231,-0.1229,0,0,-0.2199,-0.2146,-0.2159,-0.2062,-0.2096,-0.1932,-0.1907,-0.1709,-0.158,-0.1341,-0.1245,-0.1394,-0.1597,-0.132,-0.1351,-0.1252,-0.1338,-0.1187,-0.1739,-0.1607,-0.1632,-0.1787,-0.1735,0,0,0,0,0]},{"header":{"parameterUnit":"m.s-1","parameterCategory":2,"la1":30.2991,"la2":30.254,"lo1":-89.0895,"lo2":-89.0444,"dy":0.0017,"dx":0.0017,"nx":28,"ny":28,"refTime":"2024-04-28T03:00:00:Z","depth":"2","parameterNumber":3,"parameterNumberName":"V-component_of_CURRENTS"},"data":[0,0,0,0,0,0,0,0,0,0,0,0,0,0,0,0,0,0,0,0,0,0,0,0,0,0,0,0,0,0,0,0,0,0,0,0,0,0,0,0,0,0,0,0,0,0,0,0,0,0,0,0,0,0,0,0,0,0,-0.0211,-0.0209,0,-0.0118,-0.0117,-0.0116,-0.0085,-0.0085,-0.0085,-0.0086,0.0,0.0003,0.0006,0,0,0,0,0,0,0,0,0,0,0,0,0,-0.031,-0.0308,-0.0211,-0.0209,-0.0208,-0.0118,-0.0117,-0.0116,-0.0085,-0.0085,-0.0085,-0.0086,-0.0,0.0003,0.0006,0,0,0,0,0,0,0,0,0,0,0,0,0,-0.0248,-0.0308,-0.0211,-0.0181,-0.0178,-0.0119,-0.0117,-0.0116,-0.0084,-0.0085,-0.0085,-0.0086,-0.0001,0.0002,0.0006,0.0039,0,0,0.0018,0.002,0,0,0,0,0,0,0,0,-0.0251,-0.0244,-0.0187,-0.0183,-0.0179,-0.0113,-0.012,-0.0064,-0.0084,-0.0121,-0.0086,-0.0086,-0.0037,-0.003,-0.0013,0.0043,0.0047,0.0018,0.0021,0.0022,0.0023,0,0,0,0,0,0,0,-0.0256,-0.0248,-0.0175,-0.0185,-0.0181,-0.0155,-0.0148,-0.0109,-0.0078,-0.0117,-0.0115,-0.0103,-0.0035,-0.0017,-0.0011,0.0048,0.0018,0.0022,0.0024,0.0026,0.0152,0.0153,0,0,0,0,0,0,-0.0268,-0.0252,-0.0178,-0.0172,-0.0216,-0.0153,-0.0145,-0.0134,-0.0078,-0.007,-0.0103,-0.0102,-0.0023,-0.0015,-0.0007,0.0041,0.0022,0.0026,0.0028,0.0151,0.0152,0.0153,0,0,0,0,0,0,-0.027,-0.0262,-0.0181,-0.0209,-0.0197,-0.0152,-0.014,-0.0132,-0.0115,-0.0067,-0.0059,-0.0095,-0.0023,-0.0013,0.0033,0.0044,0.0028,0.0031,0.015,0.0151,0.0153,0.0134,0,0,0,0,0,0,-0.0273,-0.0263,-0.0264,-0.021,-0.0196,-0.0152,-0.0139,-0.013,-0.0107,-0.0105,-0.0057,-0.0049,-0.0023,0.0027,0.0037,0.0049,0.0034,0.0148,0.0151,0.0152,0.0134,0.0135,0.0136,0,0,0,0,0,-0.0277,-0.0279,-0.0265,-0.0256,-0.0197,-0.0152,-0.0142,-0.0112,-0.0106,-0.0099,-0.0059,-0.0051,0.0046,0.0031,0.0043,0.0056,0.0148,0.015,0.0152,0.0133,0.0135,0.0136,0,0,0,0,0,0,-0.0327,-0.0274,-0.0258,-0.0244,-0.0203,-0.0146,-0.0139,-0.0113,-0.0076,-0.0077,-0.0034,-0.0023,0.0021,0.0045,0.0027,0.01,0.0097,0.0102,0.0079,0.0081,0.0082,0.0072,0.0037,0,0,0,0,0,-0.0336,-0.0323,-0.0266,-0.0257,-0.0239,-0.0189,-0.0168,-0.0144,-0.0101,-0.0085,-0.0046,-0.0004,0.0041,0.0064,0.0103,0.0145,0.0175,0.0161,0.0162,0.0163,0.0164,0.0223,0.0229,0.0161,0.0161,0.0161,0,0,-0.0356,-0.0323,-0.0318,-0.0267,-0.0235,-0.0209,-0.0178,-0.015,-0.0123,-0.0081,-0.0041,0.0001,0.0053,0.01,0.0121,0.012,0.0201,0.0166,0.0166,0.0167,0.0226,0.0232,0.0238,0.0163,0.0162,0.0162,0,0,-0.0387,-0.0357,-0.0356,-0.032,-0.0271,-0.0231,-0.0224,-0.0164,-0.0135,-0.0086,-0.0047,0.0005,0.0066,0.0114,0.0144,0.0179,0.0204,0.0186,0.0187,0.0244,0.025,0.0255,0.0305,0.0315,0.0188,0.0188,0.0188,0,-0.0415,-0.0401,-0.0349,-0.0334,-0.0308,-0.0244,-0.0232,-0.0186,-0.0117,-0.0086,-0.008,0.0037,0.0076,0.015,0.0161,0.0182,0.0213,0.0173,0.0245,0.0251,0.0257,0.0306,0.0318,0.0187,0.0188,0.0188,0.0188,0,-0.0439,-0.0425,-0.0421,-0.0377,-0.034,-0.032,-0.0246,-0.0205,-0.0162,-0.011,-0.0031,0.0037,0.0106,0.013,0.0156,0.0223,0.0231,0.0236,0.0235,0.0262,0.0313,0.0325,0.0187,0.0187,0.0187,0.0187,0,0,-0.051,-0.0452,-0.0453,-0.0439,-0.0362,-0.0335,-0.0279,-0.0207,-0.0168,-0.0093,-0.0033,0.0055,0.0097,0.0135,0.0184,0.0237,0.0307,0.0249,0.0252,0.0289,0.0429,0.0513,0.0534,0.032,0.0322,0.0324,0.0449,0,-0.0549,-0.055,-0.0491,-0.0474,-0.0467,-0.0375,-0.0326,-0.0248,-0.0172,-0.0096,-0.0001,0.0065,0.01,0.0131,0.0196,0.0284,0.0337,0.0272,0.0406,0.0411,0.0474,0.0551,0.039,0.0495,0.0461,0.0463,0.0464,0,-0.0595,-0.0587,-0.0592,-0.0526,-0.0511,-0.0478,-0.0384,-0.033,-0.0197,-0.0135,-0.0038,0.0038,0.0149,0.0158,0.0328,0.0283,0.035,0.0412,0.0418,0.051,0.0517,0.0464,0.0519,0.0485,0.0483,0.0482,0.048,0,-0.0692,-0.0652,-0.0663,-0.0643,-0.0558,-0.0528,-0.0475,-0.0353,-0.0297,-0.0164,-0.0105,0.0036,0.0118,0.0224,0.0373,0.0344,0.0555,0.0531,0.067,0.0675,0.0575,0.0571,0.0634,0.0634,0.0634,0.0634,0.0633,0,-0.0762,-0.0764,-0.0712,-0.0717,-0.0711,-0.0614,-0.0572,-0.049,-0.0361,-0.028,-0.0143,-0.0038,0.0137,0.0287,0.0386,0.0596,0.0573,0.0696,0.0728,0.0568,0.0561,0.0573,0.0564,0.0638,0.0637,0.0636,0.0636,0,-0.0864,-0.0832,-0.0839,-0.0777,-0.0761,-0.0758,-0.0655,-0.0611,-0.0477,-0.0363,-0.0323,-0.0081,0.014,0.032,0.0529,0.0634,0.0796,0.086,0.067,0.0681,0.0865,0.0854,0.1029,0.1033,0.1037,0.104,0.1042,0,-0.0915,-0.0936,-0.0914,-0.0927,-0.0901,-0.0874,-0.0846,-0.0703,-0.0632,-0.0376,-0.0319,-0.0063,0.0155,0.0522,0.0688,0.0901,0.0917,0.0919,0.0852,0.09,0.0913,0.0896,0.088,0.0696,0.0696,0.0695,0.0695,0,-0.1005,-0.1,-0.1008,-0.1056,-0.1046,-0.1015,-0.0948,-0.0897,-0.0693,-0.0552,-0.0282,-0.0081,0.0278,0.0511,0.0799,0.0883,0.0877,0.0925,0.1025,0.0645,0.0604,0.0611,0.0602,0.0691,0.0692,0.0692,0.0692,0.0692,-0.1068,-0.1109,-0.1136,-0.1168,-0.1163,-0.1123,-0.1065,-0.0976,-0.0831,-0.0597,-0.0354,-0.0082,0.0214,0.0565,0.0771,0.0906,0.0932,0.0933,0.0926,0.0921,0.0885,0.0855,0.0981,0.0983,0.0985,0.0986,0.0988,0,-0.1144,-0.1184,-0.1239,-0.1258,-0.1265,-0.1221,-0.11,-0.1038,-0.0874,-0.0693,-0.0448,-0.0161,0.014,0.0434,0.0631,0.0847,0.0745,0.0879,0.0688,0.069,0.0692,0.0637,0.0672,0.0673,0.0673,0.0673,0,0,-0.1182,-0.1266,-0.1296,-0.1339,-0.1329,-0.1295,-0.1198,-0.1093,-0.0961,-0.078,-0.0605,-0.0343,0.0086,0.0188,0.043,0.055,0.0551,0.0531,0.0746,0.0486,0.0485,0.0675,0.0589,0,0,0,0,0]}],[{"header":{"parameterUnit":"m.s-1","parameterCategory":2,"la1":30.2991,"la2":30.254,"lo1":-89.0895,"lo2":-89.0444,"dy":0.0017,"dx":0.0017,"nx":28,"ny":28,"refTime":"2024-04-28T03:00:00:Z","depth":"4","parameterNumber":2,"parameterNumberName":"U-component_of_CURRENTS"},"data":[0,0,0,0,0,0,0,0,0,0,0,0,0,0,0,0,0,0,0,0,0,0,0,0,0,0,0,0,0,0,0,0,0,0,0,0,0,0,0,0,0,0,0,0,0,0,0,0,0,0,0,0,0,0,0,0,0,0,-0.1381,-0.1382,0,-0.1407,-0.1407,-0.1407,-0.1425,-0.1425,-0.1426,-0.1426,-0.1396,-0.1394,-0.1393,0,0,0,0,0,0,0,0,0,0,0,0,0,-0.1288,-0.1289,-0.1381,-0.1382,-0.1383,-0.1407,-0.1407,-0.1407,-0.1425,-0.1425,-0.1426,-0.1426,-0.1396,-0.1395,-0.1393,0,0,0,0,0,0,0,0,0,0,0,0,0,-0.1319,-0.129,-0.1381,-0.1397,-0.1399,-0.1407,-0.1407,-0.1407,-0.1424,-0.1425,-0.1426,-0.1427,-0.1397,-0.1395,-0.1393,-0.1366,0,0,-0.1387,-0.1386,0,0,0,0,0,0,0,0,-0.1317,-0.1322,-0.1394,-0.1396,-0.1399,-0.1417,-0.1363,-0.1392,-0.1424,-0.1411,-0.1426,-0.1427,-0.14,-0.1398,-0.1396,-0.1365,-0.1363,-0.1387,-0.1386,-0.1385,-0.1384,0,0,0,0,0,0,0,-0.1315,-0.132,-0.1388,-0.1395,-0.1398,-0.1383,-0.1389,-0.1368,-0.1396,-0.1412,-0.1414,-0.1423,-0.14,-0.1398,-0.1395,-0.1363,-0.1387,-0.1385,-0.1384,-0.1383,-0.1391,-0.1392,0,0,0,0,0,0,-0.1323,-0.1319,-0.1387,-0.1389,-0.1363,-0.1385,-0.1391,-0.1407,-0.1398,-0.1399,-0.1423,-0.1424,-0.1401,-0.1397,-0.1394,-0.1449,-0.1385,-0.1383,-0.1382,-0.139,-0.1391,-0.1393,0,0,0,0,0,0,-0.132,-0.1329,-0.1386,-0.1357,-0.1364,-0.1387,-0.1404,-0.1407,-0.1436,-0.1408,-0.1407,-0.1452,-0.1401,-0.1397,-0.1411,-0.1444,-0.1382,-0.138,-0.1388,-0.139,-0.1392,-0.1502,0,0,0,0,0,0,-0.1318,-0.1328,-0.1351,-0.1358,-0.1366,-0.1417,-0.1404,-0.1407,-0.144,-0.1443,-0.1432,-0.1428,-0.1401,-0.1414,-0.1409,-0.1441,-0.1379,-0.1386,-0.1389,-0.1391,-0.1497,-0.1507,-0.1517,0,0,0,0,0,-0.1314,-0.134,-0.1352,-0.1361,-0.1394,-0.1418,-0.1422,-0.1436,-0.1442,-0.1462,-0.1459,-0.143,-0.1426,-0.1414,-0.1407,-0.1439,-0.1385,-0.1388,-0.1391,-0.1492,-0.1505,-0.1516,0,0,0,0,0,0,-0.1304,-0.1345,-0.1358,-0.1393,-0.1419,-0.1424,-0.1447,-0.1455,-0.1468,-0.1476,-0.1446,-0.1443,-0.1468,-0.1436,-0.1423,-0.1448,-0.1401,-0.1403,-0.148,-0.1492,-0.1502,-0.1497,-0.1377,0,0,0,0,0,-0.1315,-0.1351,-0.1379,-0.141,-0.1428,-0.1443,-0.1459,-0.1471,-0.148,-0.1489,-0.1484,-0.1475,-0.1469,-0.147,-0.1457,-0.1469,-0.1437,-0.1484,-0.1495,-0.1503,-0.1495,-0.148,-0.1488,-0.1403,-0.1403,-0.1403,0,0,-0.1318,-0.1347,-0.1366,-0.1411,-0.1431,-0.1464,-0.1455,-0.1492,-0.152,-0.148,-0.1522,-0.1512,-0.1481,-0.1501,-0.1508,-0.1483,-0.1517,-0.1507,-0.1515,-0.1502,-0.1484,-0.1493,-0.15,-0.1405,-0.1404,-0.1404,0,0,-0.1335,-0.1372,-0.1407,-0.1438,-0.1485,-0.1496,-0.1517,-0.1546,-0.1566,-0.1599,-0.158,-0.1591,-0.1588,-0.1572,-0.1561,-0.1615,-0.1573,-0.162,-0.1666,-0.1653,-0.166,-0.1665,-0.1662,-0.1666,-0.1624,-0.1624,-0.1624,0,-0.1333,-0.1388,-0.1419,-0.1461,-0.1493,-0.1518,-0.1558,-0.1579,-0.161,-0.1626,-0.163,-0.1634,-0.1617,-0.1624,-0.165,-0.1638,-0.1627,-0.1626,-0.1667,-0.1671,-0.1675,-0.1669,-0.1672,-0.1629,-0.1629,-0.1628,-0.1628,0,-0.1371,-0.1427,-0.1452,-0.1518,-0.1553,-0.1595,-0.1632,-0.1669,-0.1698,-0.1711,-0.1745,-0.1727,-0.1725,-0.173,-0.1708,-0.173,-0.1715,-0.1685,-0.1637,-0.169,-0.1681,-0.1682,-0.1638,-0.1636,-0.1634,-0.1632,0,0,-0.1324,-0.1454,-0.1465,-0.1515,-0.1591,-0.162,-0.1679,-0.1728,-0.1763,-0.1795,-0.1829,-0.1833,-0.1828,-0.1814,-0.1793,-0.1784,-0.1816,-0.1757,-0.1753,-0.1756,-0.1803,-0.1711,-0.1703,-0.18,-0.1801,-0.1801,-0.1796,0,-0.1342,-0.1442,-0.15,-0.1586,-0.1637,-0.1691,-0.1742,-0.179,-0.1825,-0.1864,-0.1858,-0.188,-0.1858,-0.1867,-0.186,-0.1821,-0.1821,-0.1821,-0.1747,-0.1745,-0.1658,-0.1701,-0.1802,-0.1797,-0.1797,-0.1797,-0.1797,0,-0.1346,-0.142,-0.1519,-0.1636,-0.1663,-0.1717,-0.18,-0.1849,-0.1902,-0.193,-0.1951,-0.1947,-0.1951,-0.1921,-0.1889,-0.1895,-0.1862,-0.1829,-0.1827,-0.1695,-0.1653,-0.1724,-0.1798,-0.1798,-0.1798,-0.1798,-0.1798,0,-0.129,-0.1424,-0.151,-0.1551,-0.1682,-0.1735,-0.1799,-0.1869,-0.191,-0.1968,-0.1996,-0.2001,-0.2,-0.1968,-0.1909,-0.191,-0.1859,-0.1845,-0.1731,-0.1725,-0.1761,-0.1754,-0.1818,-0.1819,-0.1819,-0.1819,-0.1819,0,-0.1272,-0.1338,-0.15,-0.1544,-0.1628,-0.1728,-0.1804,-0.1864,-0.1945,-0.1978,-0.2024,-0.2027,-0.2011,-0.1979,-0.1931,-0.1829,-0.1876,-0.1739,-0.1713,-0.1811,-0.181,-0.1763,-0.1757,-0.1818,-0.1818,-0.1818,-0.1818,0,-0.119,-0.1306,-0.1401,-0.1559,-0.1606,-0.1663,-0.1803,-0.1848,-0.1942,-0.1985,-0.2008,-0.2049,-0.2011,-0.1977,-0.1911,-0.1837,-0.1759,-0.171,-0.1829,-0.181,-0.1637,-0.1637,-0.1597,-0.1594,-0.1591,-0.1589,-0.1587,0,-0.1159,-0.1208,-0.1381,-0.1432,-0.1509,-0.1613,-0.1678,-0.1817,-0.1858,-0.1971,-0.197,-0.1988,-0.1989,-0.1821,-0.1809,-0.1719,-0.1685,-0.165,-0.1636,-0.1634,-0.1613,-0.1617,-0.162,-0.1582,-0.1581,-0.1581,-0.158,0,-0.1074,-0.1149,-0.1222,-0.1337,-0.1426,-0.1509,-0.1614,-0.1637,-0.1779,-0.1889,-0.1875,-0.1851,-0.1806,-0.1743,-0.1679,-0.1613,-0.1678,-0.162,-0.1625,-0.1612,-0.1615,-0.1598,-0.1605,-0.157,-0.1571,-0.1572,-0.1573,0,-0.0988,-0.1017,-0.1125,-0.1203,-0.1308,-0.136,-0.1447,-0.151,-0.1577,-0.1722,-0.1707,-0.1733,-0.1786,-0.1687,-0.1628,-0.156,-0.1537,-0.148,-0.1493,-0.1504,-0.1472,-0.1461,-0.1345,0,0,0,0,0,-0.0887,-0.091,-0.0983,-0.1062,-0.1162,-0.1216,-0.1375,-0.1468,-0.1613,-0.1565,-0.1638,-0.1596,-0.154,-0.1552,-0.1454,-0.1572,-0.1529,-0.1454,-0.1469,-0.1514,-0.1526,-0.1494,0,0,0,0,0,0,-0.0822,-0.0878,-0.0926,-0.0917,-0.0932,-0.1027,-0.1119,-0.1237,-0.1229,-0.138,-0.1348,-0.1472,-0.1423,-0.1528,-0.1395,-0.1401,-0.1378,-0.1488,-0.1484,-0.1508,-0.1518,-0.1528,-0.1499,0,0,0,0,0]},{"header":{"parameterUnit":"m.s-1","parameterCategory":2,"la1":30.2991,"la2":30.254,"lo1":-89.0895,"lo2":-89.0444,"dy":0.0017,"dx":0.0017,"nx":28,"ny":28,"refTime":"2024-04-28T03:00:00:Z","depth":"4","parameterNumber":3,"parameterNumberName":"V-component_of_CURRENTS"},"data":[0,0,0,0,0,0,0,0,0,0,0,0,0,0,0,0,0,0,0,0,0,0,0,0,0,0,0,0,0,0,0,0,0,0,0,0,0,0,0,0,0,0,0,0,0,0,0,0,0,0,0,0,0,0,0,0,0,0,-0.0354,-0.0353,0,-0.0306,-0.0305,-0.0305,-0.0295,-0.0295,-0.0295,-0.0296,-0.0257,-0.0256,-0.0254,0,0,0,0,0,0,0,0,0,0,0,0,0,-0.0396,-0.0396,-0.0354,-0.0353,-0.0353,-0.0306,-0.0305,-0.0304,-0.0295,-0.0295,-0.0295,-0.0296,-0.0257,-0.0256,-0.0254,0,0,0,0,0,0,0,0,0,0,0,0,0,-0.0366,-0.0396,-0.0354,-0.0342,-0.034,-0.0306,-0.0305,-0.0304,-0.0295,-0.0295,-0.0295,-0.0296,-0.0258,-0.0256,-0.0254,-0.0232,0,0,-0.0248,-0.0247,0,0,0,0,0,0,0,0,-0.0368,-0.0365,-0.0344,-0.0342,-0.0341,-0.0306,-0.0306,-0.0281,-0.0294,-0.0312,-0.0296,-0.0296,-0.0273,-0.027,-0.0261,-0.0231,-0.0229,-0.0248,-0.0247,-0.0246,-0.0245,0,0,0,0,0,0,0,-0.037,-0.0367,-0.0336,-0.0343,-0.0341,-0.0324,-0.0321,-0.0301,-0.0292,-0.0311,-0.031,-0.0303,-0.0273,-0.0263,-0.026,-0.0228,-0.0248,-0.0246,-0.0245,-0.0244,-0.0156,-0.0155,0,0,0,0,0,0,-0.0377,-0.0369,-0.0337,-0.0334,-0.0355,-0.0323,-0.0319,-0.0317,-0.0292,-0.0288,-0.0303,-0.0303,-0.0266,-0.0262,-0.0259,-0.0219,-0.0246,-0.0244,-0.0243,-0.0157,-0.0156,-0.0155,0,0,0,0,0,0,-0.0378,-0.0374,-0.0339,-0.035,-0.0344,-0.0322,-0.0319,-0.0316,-0.031,-0.0285,-0.0282,-0.0301,-0.0266,-0.0261,-0.0232,-0.0218,-0.0243,-0.0241,-0.0159,-0.0157,-0.0155,-0.0148,0,0,0,0,0,0,-0.0379,-0.0375,-0.0381,-0.035,-0.0343,-0.0324,-0.0319,-0.0315,-0.0304,-0.0304,-0.0282,-0.0279,-0.0266,-0.0235,-0.023,-0.0216,-0.024,-0.016,-0.0158,-0.0156,-0.015,-0.0147,-0.0144,0,0,0,0,0,-0.0381,-0.0389,-0.0381,-0.0377,-0.035,-0.0324,-0.0319,-0.0305,-0.0304,-0.0301,-0.0277,-0.028,-0.0218,-0.0233,-0.0227,-0.0212,-0.0161,-0.0158,-0.0156,-0.0151,-0.0147,-0.0144,0,0,0,0,0,0,-0.0418,-0.0387,-0.0379,-0.038,-0.0355,-0.0322,-0.0322,-0.0307,-0.0286,-0.0288,-0.0265,-0.0259,-0.0229,-0.0218,-0.0235,-0.0178,-0.019,-0.0186,-0.0188,-0.0184,-0.0181,-0.0189,-0.0238,0,0,0,0,0,-0.0425,-0.0422,-0.0387,-0.039,-0.0378,-0.0349,-0.0339,-0.0326,-0.03,-0.0292,-0.027,-0.0244,-0.0213,-0.0198,-0.0175,-0.0144,-0.0127,-0.0129,-0.0126,-0.0124,-0.0125,-0.0074,-0.0067,-0.0146,-0.0146,-0.0146,0,0,-0.0443,-0.0424,-0.0425,-0.0397,-0.0379,-0.0362,-0.0345,-0.0331,-0.0312,-0.029,-0.0263,-0.0236,-0.0202,-0.0167,-0.0152,-0.0156,-0.0092,-0.012,-0.0119,-0.0121,-0.0071,-0.0063,-0.0056,-0.0144,-0.0145,-0.0145,0,0,-0.047,-0.0457,-0.0459,-0.0435,-0.0405,-0.038,-0.0376,-0.0338,-0.032,-0.0285,-0.026,-0.0219,-0.0182,-0.0144,-0.0123,-0.0086,-0.008,-0.0083,-0.0071,-0.0021,-0.0015,-0.0008,0.0019,0.0027,-0.0078,-0.0078,-0.0078,0,-0.0495,-0.0487,-0.0456,-0.0444,-0.0429,-0.0389,-0.0381,-0.0349,-0.0305,-0.0282,-0.028,-0.0194,-0.0168,-0.0106,-0.0091,-0.0079,-0.0061,-0.0091,-0.0018,-0.0011,-0.0005,0.0021,0.003,-0.0078,-0.0078,-0.0078,-0.0078,0,-0.051,-0.0505,-0.0504,-0.0473,-0.045,-0.0439,-0.0387,-0.0359,-0.0329,-0.0291,-0.0229,-0.0178,-0.0127,-0.0105,-0.0088,-0.0025,-0.0029,-0.0023,-0.0032,0.0003,0.0029,0.0038,-0.0077,-0.0077,-0.0077,-0.0077,0,0,-0.0567,-0.0525,-0.0527,-0.0518,-0.0465,-0.045,-0.0408,-0.0356,-0.0327,-0.0268,-0.0223,-0.0148,-0.0116,-0.0088,-0.0049,0.0001,0.0062,0.0005,0.0007,0.0024,0.0156,0.0133,0.0141,0.0079,0.0081,0.0083,0.0155,0,-0.0592,-0.0589,-0.055,-0.054,-0.0534,-0.0474,-0.0439,-0.0383,-0.0327,-0.0271,-0.0191,-0.014,-0.0109,-0.0082,-0.0023,0.0043,0.0088,0.0041,0.0127,0.0129,0.0099,0.0152,0.0088,0.0162,0.0164,0.0165,0.0167,0,-0.0615,-0.0612,-0.0615,-0.0575,-0.0565,-0.0547,-0.0483,-0.0444,-0.0346,-0.03,-0.022,-0.0159,-0.0063,-0.0052,0.0084,0.005,0.01,0.0148,0.0152,0.0133,0.0124,0.0123,0.0184,0.0182,0.0181,0.018,0.0179,0,-0.0674,-0.0652,-0.0661,-0.0648,-0.0597,-0.0581,-0.0549,-0.0463,-0.0425,-0.032,-0.028,-0.0158,-0.0096,-0.0003,0.0107,0.0095,0.0243,0.0239,0.0264,0.0262,0.0255,0.0248,0.0323,0.0323,0.0323,0.0323,0.0323,0,-0.0707,-0.0714,-0.0695,-0.0699,-0.0706,-0.0643,-0.0622,-0.0565,-0.0477,-0.0429,-0.0308,-0.0238,-0.008,0.0029,0.0111,0.0223,0.0251,0.0276,0.0289,0.0255,0.0248,0.0261,0.0253,0.0325,0.0325,0.0324,0.0324,0,-0.0757,-0.0746,-0.076,-0.0736,-0.0736,-0.074,-0.0691,-0.0664,-0.0573,-0.0504,-0.0472,-0.0289,-0.0141,0.0005,0.0169,0.0225,0.0331,0.0356,0.0306,0.0313,0.0311,0.0302,0.0392,0.0392,0.0392,0.0392,0.0392,0,-0.0774,-0.0792,-0.0811,-0.0836,-0.083,-0.0828,-0.0824,-0.0734,-0.0693,-0.0534,-0.0501,-0.0328,-0.0206,0.0018,0.0166,0.0329,0.0341,0.0386,0.0357,0.0319,0.0323,0.0314,0.0306,0.0392,0.0392,0.0392,0.0392,0,-0.081,-0.0827,-0.0843,-0.091,-0.0928,-0.093,-0.0908,-0.0882,-0.0759,-0.0685,-0.0514,-0.0356,-0.0182,0.0011,0.0146,0.0258,0.0357,0.0386,0.0386,0.0359,0.032,0.0321,0.0313,0.0392,0.0392,0.0392,0.0392,0,-0.0837,-0.0868,-0.0911,-0.0957,-0.1,-0.1004,-0.0983,-0.0906,-0.0842,-0.0654,-0.0601,-0.0378,-0.023,-0.0026,0.0099,0.0215,0.023,0.0244,0.0252,0.0253,0.0191,0.012,0.0152,0,0,0,0,0,-0.0853,-0.0891,-0.0952,-0.0996,-0.1044,-0.1056,-0.1023,-0.0978,-0.0867,-0.0764,-0.0673,-0.0506,-0.0253,-0.0118,-0.0011,0.0067,0.0225,0.0193,0.0237,0.0392,0.0392,0.0341,0,0,0,0,0,0,-0.086,-0.0923,-0.0954,-0.1021,-0.1058,-0.1086,-0.1062,-0.0988,-0.0908,-0.0783,-0.0644,-0.0518,-0.0276,-0.0331,-0.0023,0.0022,0.0056,0.033,0.0331,0.0392,0.0392,0.0392,0.034,0,0,0,0,0]}]]